Regional Weather Roundup
Issued by NWS Wakefield, VA

Home | Current Version | Previous Version | Graphics & Text | Print | Product List | Glossary On
Versions: 1 2 3 4 5 6 7 8 9 10 11 12 13 14 15 16 17 18 19 20 21 22 23 24 25 26 27 28 29 30 31 32 33 34 35 36 37 38 39 40 41 42 43 44 45 46 47 48 49 50
000
ASUS41 KAKQ 302015
RWRAKQ

REGIONAL WEATHER ROUNDUP
NATIONAL WEATHER SERVICE WAKEFIELD VA
400 PM EDT SAT APR 30 2016

Note: "fair" indicates few or no clouds below 12,000 feet with no
significant weather and/or obstructions to visibility. * = Denotes
station may not report precipitation (e.g., rain,snow,etc.),
thunder or fog.

VAZ042-051-052>054-056-302100-
NORTHERN VIRGINIA

CITY           SKY/WX    TMP DP  RH WIND       PRES   REMARKS
WASH NATIONAL  CLOUDY    57  48  72 SE7       30.20S
DULLES         CLOUDY    55  47  74 SE6       30.19F
FORT BELVOIR   CLOUDY    57  47  70 SE6       30.19F
QUANTICO       CLOUDY    58  49  72 S6        30.20F
FREDERICKSBRG* CLOUDY    58  51  78 NE8       30.18S
STAFFORD*      CLOUDY    57  48  72 E7        30.23S
WARRENTON      CLOUDY    58  46  65 SE6       30.18S
CULPEPER*      CLOUDY    59  51  76 E3        30.18F
MANASSAS*      CLOUDY    57  48  72 SE5       30.19F
LEESBURG*      CLOUDY    57  50  77 SE6       30.19F
WINCHESTER     LGT RAIN  54  50  87 SE10      30.16F
FRONT ROYAL*   CLOUDY    55  50  82 CALM      30.14F
LURAY*         CLOUDY    57  54  88 S5        30.15S
$$

VAZ048-049-060>072-079>083-302100-
CENTRAL AND SOUTH CENTRAL VIRGINIA

CITY           SKY/WX    TMP DP  RH WIND       PRES   REMARKS
RICHMOND       CLOUDY    59  49  69 E5        30.18S
CHESTERFIELD*  CLOUDY    59  43  55 E3        30.19S
PETERSBURG*    CLOUDY    61  52  73 SE6       30.18S
HANOVER        CLOUDY    59  48  67 E5        30.19S
TAPPAHANNOCK*  CLOUDY    58  50  76 NE5       30.20S
QUINTON*       CLOUDY    58  51  77 S9        30.19R
CHARLOTTSVILLE CLOUDY    58  50  75 CALM      30.16F
GORDONSVILLE*  CLOUDY    58  52  79 CALM      30.16F
ORANGE*        CLOUDY    59  52  77 CALM      30.19F
LOUISA*        CLOUDY    63  54  72 CALM      30.16S
BUMPASS*       CLOUDY    60  51  72 E8        30.17S
FARMVILLE*     CLOUDY    62  52  71 E6        30.15S
CREWE*         CLOUDY    59  55  87 SE3       30.16S
FORT PICKETT*  NOT AVBL
CHASE CITY*    CLOUDY    58  55  88 E7        30.15F
CLARKSVILLE*   CLOUDY    59  54  82 E7        30.15F
SOUTH HILL*    CLOUDY    58  53  86 CALM      30.21F
LAWRENCEVILLE* CLOUDY    59  54  84 SE6       30.16F
EMPORIA*       CLOUDY    59  52  77 E6        30.18F
$$

VAZ088>098-302100-
SOUTHEAST VIRGINIA

CITY           SKY/WX    TMP DP  RH WIND       PRES   REMARKS
NORFOLK        PTSUNNY   59  47  64 NE9       30.18F
VIRGINIA BEACH PTSUNNY   63  48  58 NE12      30.17F
NORFOLK NAVAL  CLOUDY    59  49  69 NE9       30.20S
WEST POINT*    CLOUDY    58  49  69 SE5       30.21S
SALUDA*        CLOUDY    56  51  81 E5        30.19S
NEWPORT NEWS   CLOUDY    59  51  75 E7        30.18F
LANGLEY AFB    CLOUDY    59  49  71 E10       30.18F
FORT EUSTIS    CLOUDY    59  48  67 E6        30.17F
WILLIAMSBURG*  FAIR      61  52  72 CALM      30.19F
HR EXEC AP*    CLOUDY    63  50  63 SE6       30.19F
FRANKLIN*      CLOUDY    59  51  73 NE7       30.18F
US460-WAKEFLD  CLOUDY    58  50  75 E5        30.19S
$$

VAZ020-022-025-037-045-302100-
WEST CENTRAL AND SOUTHWEST VIRGINIA

CITY           SKY/WX    TMP DP  RH WIND       PRES   REMARKS
STAUNTON*      CLOUDY    58  53  81 SE6       30.17S
WAYNESBORO*    CLOUDY    53  50  88 MISG      30.16S
HOT SPRINGS VA LGT RAIN  51  51 100 SE5       30.14S VSB<1/4
LYNCHBURG      CLOUDY    55  53  93 NE3       30.17S
DANVILLE       CLOUDY    58  55  90 NE6       30.14F
SOUTH BOSTON*  CLOUDY    59  56  88 CALM      30.15S
MARTINSVILLE   CLOUDY    56  55  97 E3        30.15F FOG
ROANOKE        LGT RAIN  56  54  93 E8        30.16F FOG
BLACKSBURG     DRIZZLE   55  55  97 E7        30.16F
DUBLIN*        CLOUDY    58  57  97 E8        30.12F
MARION*        CLOUDY    63  56  79 E13       30.11S
HILLSVILLE*    CLOUDY    55  55  98 SE6       30.11F
RICHLANDS*     CLOUDY    66  59  77 N3        30.06F
WISE*          LGT RAIN  63  50  63 N3        30.09R
ABINGDON*      PTSUNNY   75  55  49 NE5       30.01F
$$

MDZ021>025-VAZ099-100-302100-
SOUTHERN MARYLAND AND THE DELMARVA PENINSULA

CITY           SKY/WX    TMP DP  RH WIND       PRES   REMARKS
PATUXENT RIVER CLOUDY    56  47  71 E6        30.20S
BAY BRIDGE APT NOT AVBL
LEONARDTOWN    CLOUDY    55  46  71 CALM      30.21S
DOVER          MOSUNNY   58  47  68 E10       30.20S
GEORGETOWN     CLOUDY    56  45  66 E8        30.21S
EASTON         PTSUNNY  N/A N/A N/A S3        30.23F
CAMBRIDGE      PTSUNNY   55  46  71 CALM      30.19S
SALISBURY      CLOUDY    58  46  64 NE7       30.19F
OCEAN CITY     PTSUNNY   54  45  71 VRB7      30.22R
WALLOPS ISLAND FAIR      58  48  69 NE14      30.21R
ACCOMACK*      CLOUDY   N/A N/A N/A E7        30.19S
$$

NCZ012>017-030>032-302100-
NORTH CENTRAL AND EASTERN NORTH CAROLINA

CITY           SKY/WX    TMP DP  RH WIND       PRES   REMARKS
ROANOKE RAPIDS CLOUDY    59  54  82 E6        30.16F
RALEIGH        CLOUDY    64  56  75 E9        30.13F
ELIZABETH CITY MOSUNNY   63  52  67 NE9       30.17F
AHOSKIE*       CLOUDY    60  52  76 E5        30.17S
EDENTON*       CLOUDY    63  56  78 E7        30.17F
CURRITUCK*     MOSUNNY   60  52  74 NE8       30.20R
KILL DEVIL HLS PTSUNNY   59  51  73 NE9       30.16S
MANTEO         NOT AVBL
CAPE HATTERAS  CLOUDY    60  54  80 NE8       30.15S
TARBORO*       CLOUDY    61  56  82 E5        30.17S
GOLDSBORO      CLOUDY    66  61  82 NE14      30.11S
WASHINGTON     PTSUNNY   62  55  77 E8        30.14F
GREENVILLE     CLOUDY    61  55  82 E5        30.16F
NEW BERN       CLOUDY    65  56  72 E8        30.14F
WILMINGTON     CLOUDY    67  58  72 E8        30.09F
$$

VAZ048-302100-
ELSEWHERE

CITY           SKY/WX    TMP DP  RH WIND       PRES   REMARKS
HARRISBURG PA  CLOUDY    58  44  60 CALM      30.17F
BALTIMORE      CLOUDY    57  45  64 S5        30.19S
ANNAPOLIS      CLOUDY    57  48  72 MISG      30.20F
ANDREWS AFB    CLOUDY    56  48  72 SE7       30.19R
PHILADELPHIA   CLOUDY    61  41  47 E3        30.20F
HENDERSON NC   CLOUDY    58  58 100 E6        30.15F
GREENSBORO     CLOUDY    62  59  90 E8        30.09F
ROCKY MOUNT    CLOUDY    60  56  86 NE3       30.16S
$$

VAZ100-302100-
MARINE

STATION/POSITION TIME  TEMP    WIND        PRES    WAVE   SWELL
                       AIR SEA DIR/SP/G            HT/PER HT/PER
                 (UTC) (F)     (DEG/KT/KT) (MB)    (FT/S) (FT/S)
BRANDYWINE LGT   1900   52     100/ 12/ 13 1023.1F
CAPE MAY NJ      1900   52 58   80/ 10/ 15 1022.9F
LEWES DE         1900   51 56   70/ 15/ 16 1023.0F
15NM E FENWICK I 1950   50 51              1022.6F   6/ 8
OCEAN-CITY-INLET 1900   53 54   80/  7/ 11 1022.5F
WACHAPREAGUE VA  1900   54 59   60/ 12/ 14 1022.0F
THOMAS POINT MD  2000   55 58  200/  2/  4 1023.8F
GOOSES REEF MD   2000   55 58  360/  2/  4 1023.5F   0
COVE POINT MD    1900   55      50/  2/  3 1023.1F
SOLOMONS ISLAND  1900   55 60   80/  6/  7   N/A
BISHOPS HEAD MD  1900   56 58   60/  4/  6 1021.9F
PINEY POINT MD   1900          150/  6/  8   N/A
POTOMAC MD       2000   55 59  100/  4/  6 1021.7S   0
CAMBRIDGE MD     1900   56 60   70/  1/  2 1021.9F
LEWISETTA VA     1900   55 60   80/  3/  4 1022.4F
RAPPAHANNOCK LGT 1900          360/  9/ 10 1022.9S
STINGRAY PT      2000   56 61   40/  6/  8 1022.7F   1
YORK RVR RNG VA  1900   56      50/  6/  7 1021.8F
YORKTOWN VA      1900   56 62   80/  6/  8 1022.2F
JAMESTOWN VA     2000   58 66  110/  6/  8   N/A
DOMINION TERM VA 1900   57      80/  8/ 11 1022.4F
KIPTOPEKE VA     1900      60   60/ 11/ 14   N/A
CHES BAY BRIDGE  1900   56 60   40/ 10/ 13 1021.8F
CAPE HENRY VA    1900   55      40/  9/ 10   N/A
CHESAPEAKE LGHT  1900   53      20/ 12/ 13 1022.8R
WILLOUBY STN VA  1900   56      70/ 10/ 11 1023.1F
CAPE HENRY BUOY  1912      56                N/A     4/10   2/11
CAPE CHARLES BUO 1926      57                N/A     4/11   3/11
OFFSHORE WE BUOY 1921      54                N/A     5/ 9   5/ 9
64NM E OF VA BCH 1950   53 53   10/ 14/ 17 1020.9S   6/10   5/10
DUCK PIER NC     1900   54 67   10/ 11/ 15 1021.3S
44100 DUCK FRF   1924      55                N/A     5/10   2/11
44056 DUCK FRF   1911      59                N/A     5/10   2/11
OREGON INLET NC  1900   56 62  360/ 10/ 15 1021.3R
HATTERAS NC      1900   59 68   10/ 12/ 16 1020.7F
DIAMOND SHLS NC  1950   58 74   10/ 16/ 17 1020.5S   5/ 8   5/ 8
CAPE LOOKOUT NC  1900   63      40/ 17/ 18 1019.9F
$$



USA.gov is the U.S. government's official web portal to all federal, state and local government web resources and services.